DW7229 Weather Reports


time (UTC)temp
C
wind
direction
speed
KPH
gust
KPH
rain 1hr
cm
rain 24hr
cm
rain mn
cm
humidity
%
barometer
mb
20260904152026 26 113 0.0 3.2 0.00 0.00 0.00 61 1009.0
20260904151029 26 0.0 0.0 0.00 0.00 0.00 63 1009.1
20260904150033 26 288 0.0 4.8 0.00 0.00 0.00 65 1009.2
20260904145038 25 0.0 0.0 0.00 0.00 0.00 67 1009.4
20260904144021 25 0.0 0.0 0.00 0.00 0.00 69 1009.4
20260904143024 24 225 1.6 8.0 0.00 0.00 0.00 70 1009.4
20260904142028 23 0.0 6.4 0.00 0.00 0.00 72 1009.5
20260904141031 23 0.0 0.0 0.00 0.00 0.00 74 1009.6
20260904140036 22 203 0.0 6.4 0.00 0.00 0.00 75 1009.7
20260904135019 22 0.0 0.0 0.00 0.00 0.00 80 1009.5
20260904134023 21 0.0 0.0 0.00 0.00 0.00 82 1009.6
20260904133040 20 0.0 0.0 0.00 0.00 0.00 89 1009.7
20260904132038 20 0.0 0.0 0.00 0.00 0.00 91 1009.6
20260904131033 20 338 0.0 1.6 0.00 0.00 0.00 93 1009.7
20260904130018 20 0.0 0.0 0.00 0.00 0.00 95 1009.8
20260904125041 20 0.0 0.0 0.00 0.00 0.00 96 1009.6
20260904124024 19 0.0 0.0 0.00 0.00 0.00 98 1009.7
20260904123028 19 0.0 0.0 0.00 0.00 0.00 99 1009.6
20260904122031 19 0.0 0.0 0.00 0.00 0.00 99 1009.6
20260904121016 18 0.0 0.0 0.00 0.00 0.00 99 1009.5
20260904120020 18 0.0 0.0 0.00 0.00 0.00 99 1009.6
20260904115023 18 0.0 0.0 0.00 0.00 0.00 99 1009.6
20260904114046 18 0.0 0.0 0.00 0.00 0.00 99 1009.7
20260904113030 18 0.0 0.0 0.00 0.00 0.00 99 1009.6
20260904112015 18 0.0 0.0 0.00 0.00 0.00 99 1009.6
20260904111018 18 0.0 0.0 0.00 0.00 0.00 99 1009.5
20260904110022 18 0.0 0.0 0.00 0.00 0.00 99 1009.4
20260904105025 18 0.0 0.0 0.00 0.00 0.00 99 1009.2
20260904104028 18 0.0 0.0 0.00 0.00 0.00 99 1009.4
20260904103052 18 0.0 0.0 0.00 0.00 0.00 99 1009.4
20260904102017 18 0.0 0.0 0.00 0.00 0.00 99 1009.5
20260904101020 18 0.0 0.0 0.00 0.00 0.00 99 1009.3
20260904100023 18 0.0 0.0 0.00 0.00 0.00 99 1009.3
20260904095020 18 0.0 0.0 0.00 0.00 0.00 99 1009.4
20260904094018 18 0.0 0.0 0.00 0.00 0.00 99 1009.4
20260904093015 18 0.0 0.0 0.00 0.00 0.00 99 1009.4
20260904092018 18 0.0 0.0 0.00 0.00 0.00 99 1009.3
20260904091022 18 0.0 0.0 0.00 0.00 0.00 99 1009.1
20260904090025 18 0.0 0.0 0.00 0.00 0.00 99 1009.3
20260904085028 18 0.0 0.0 0.00 0.00 0.00 98 1009.4
20260904084031 18 0.0 0.0 0.00 0.00 0.00 98 1009.3
20260904083017 18 0.0 0.0 0.00 0.00 0.00 98 1009.4
20260904082040 18 0.0 0.0 0.00 0.00 0.00 98 1009.4
20260904081023 18 0.0 0.0 0.00 0.00 0.00 98 1009.4
20260904080047 18 0.0 0.0 0.00 0.00 0.00 98 1009.4
20260904075030 18 0.0 0.0 0.00 0.00 0.00 98 1009.4
20260904074016 18 0.0 0.0 0.00 0.00 0.00 97 1009.5
20260904073019 18 0.0 0.0 0.00 0.00 0.00 97 1009.7
20260904072022 18 0.0 0.0 0.00 0.00 0.00 97 1009.8
20260904071025 18 0.0 0.0 0.00 0.00 0.00 96 1009.6
20260904070049 18 0.0 0.0 0.00 0.00 0.00 96 1009.8
20260904065032 18 0.0 0.0 0.00 0.00 0.00 96 1009.8
20260904064017 18 0.0 0.0 0.00 0.00 0.00 96 1009.9
20260904063020 18 0.0 0.0 0.00 0.00 0.00 96 1010.0
20260904062024 18 0.0 0.0 0.00 0.00 0.00 96 1010.2
20260904061021 18 0.0 0.0 0.00 0.00 0.00 96 1010.5
20260904060018 18 0.0 0.0 0.00 0.00 0.00 95 1010.4
20260904055016 18 0.0 0.0 0.00 0.00 0.00 95 1010.6
20260904054019 18 0.0 0.0 0.00 0.00 0.00 95 1010.6
20260904053022 18 0.0 0.0 0.00 0.00 0.00 95 1010.7
20260904052026 18 0.0 0.0 0.00 0.00 0.00 95 1010.8
20260904051029 18 0.0 0.0 0.00 0.00 0.00 95 1010.9
20260904050032 18 0.0 0.0 0.00 0.00 0.00 95 1010.7
20260904045017 18 0.0 0.0 0.00 0.00 0.00 94 1010.8
20260904044041 18 0.0 0.0 0.00 0.00 0.00 94 1011.0
20260904043024 18 0.0 0.0 0.00 0.00 0.00 94 1011.1
20260904042027 18 0.0 0.0 0.00 0.00 0.00 93 1011.1
20260904041031 18 0.0 0.0 0.00 0.00 0.00 93 1011.2
20260904040016 18 0.0 0.0 0.00 0.00 0.00 93 1011.5
20260904035040 18 0.0 0.0 0.00 0.00 0.00 93 1011.4
20260904034022 18 0.0 0.0 0.00 0.00 0.00 93 1011.4
20260904033046 18 0.0 0.0 0.00 0.00 0.00 92 1011.5
20260904032029 18 0.0 0.0 0.00 0.00 0.00 92 1011.6
20260904031032 18 0.0 0.0 0.00 0.00 0.00 92 1011.8
20260904030058 18 0.0 0.0 0.00 0.00 0.00 92 1011.6
20260904025041 18 0.0 0.0 0.00 0.00 0.00 92 1011.9
20260904024024 18 0.0 0.0 0.00 0.00 0.00 91 1011.7
20260904023021 18 0.0 0.0 0.00 0.00 0.00 91 1011.7
20260904022018 18 0.0 0.0 0.00 0.00 0.00 91 1011.7
20260904021016 18 0.0 0.0 0.00 0.00 0.00 91 1011.7
20260904020020 18 0.0 0.0 0.00 0.00 0.00 90 1011.7
20260904015023 18 0.0 0.0 0.00 0.00 0.00 90 1012.0
20260904014026 18 0.0 0.0 0.00 0.00 0.00 90 1011.9
20260904013049 18 0.0 0.0 0.00 0.00 0.00 90 1012.0
20260904012032 18 0.0 0.0 0.00 0.00 0.00 90 1012.0
20260904011038 18 0.0 0.0 0.00 0.00 0.00 89 1011.9
20260904010021 19 0.0 0.0 0.00 0.00 0.00 89 1011.6
20260904005024 19 0.0 0.0 0.00 0.00 0.00 88 1011.5
20260904004028 19 0.0 0.0 0.00 0.00 0.00 86 1011.5
20260904003051 19 0.0 0.0 0.00 0.00 0.00 86 1011.4
20260904002016 19 0.0 0.0 0.00 0.00 0.00 85 1011.2
20260904001019 20 0.0 0.0 0.00 0.00 0.00 84 1011.0
20260904000023 20 0.0 0.0 0.00 0.00 0.00 83 1011.2
20260903235026 20 0.0 0.0 0.00 0.00 0.00 82 1010.9
20260903234029 20 0.0 0.0 0.00 0.00 0.00 82 1010.9
20260903233015 21 0.0 0.0 0.00 0.00 0.00 81 1011.1
20260903232018 21 0.0 0.0 0.00 0.00 0.00 80 1011.3
20260903231021 21 0.0 0.0 0.00 0.00 0.00 80 1011.2
20260903230025 22 0.0 0.0 0.00 0.00 0.00 80 1010.9
20260903225022 22 0.0 0.0 0.00 0.00 0.00 78 1011.1
20260903224039 22 0.0 0.0 0.00 0.00 0.00 78 1011.4
20260903223016 23 0.0 0.0 0.00 0.00 0.00 77 1011.5
20260903222020 23 0.0 0.0 0.00 0.00 0.00 74 1011.6
20260903221023 23 0.0 0.0 0.00 0.00 0.00 74 1011.5
20260903220046 24 0.0 0.0 0.00 0.00 0.00 73 1011.4
20260903215030 24 0.0 0.0 0.00 0.00 0.00 73 1011.5
20260903214014 25 0.0 0.0 0.00 0.00 0.00 71 1011.4
20260903213018 25 0.0 0.0 0.00 0.00 0.00 70 1011.4
20260903212021 23 0.0 0.0 0.00 0.00 0.00 75 1011.5
20260903211025 23 0.0 0.0 0.00 0.00 0.00 76 1011.6
20260903210048 23 0.0 0.0 0.00 0.00 0.00 73 1011.4
20260903205031 24 0.0 0.0 0.00 0.00 0.00 72 1011.5
20260903204016 26 0.0 0.0 0.00 0.00 0.00 68 1011.5
20260903203040 26 0.0 0.0 0.00 0.00 0.00 66 1011.5
20260903202043 26 0.0 0.0 0.00 0.00 0.00 66 1011.6
20260903201026 26 248 0.0 3.2 0.00 0.00 0.00 65 1011.6
20260903200030 26 0.0 0.0 0.00 0.00 0.00 68 1011.9
20260903195015 25 0.0 0.0 0.00 0.00 0.00 70 1012.1
20260903194019 23 0.0 0.0 0.00 0.00 0.00 74 1012.1
20260903193022 23 0.0 0.0 0.00 0.00 0.00 75 1012.1
20260903192025 23 0.0 0.0 0.00 0.00 0.00 75 1012.0
20260903191022 22 0.0 0.0 0.00 0.00 0.00 74 1012.3
20260903190020 22 248 0.0 1.6 0.00 0.00 0.00 75 1012.6
20260903185017 22 0.0 0.0 0.00 0.00 0.00 78 1012.5
20260903184020 22 0.0 0.0 0.00 0.00 0.00 77 1012.6
20260903183023 21 0.0 0.0 0.00 0.00 0.00 78 1012.7
20260903182047 20 0.0 0.0 0.00 0.00 0.00 81 1012.7
20260903181030 21 0.0 0.0 0.00 0.00 0.00 81 1013.1
20260903180015 21 0.0 0.0 0.00 0.00 0.00 81 1013.2
20260903175018 21 0.0 0.0 0.00 0.00 0.00 81 1013.2
20260903174022 21 0.0 0.0 0.00 0.00 0.00 80 1013.1
20260903173025 21 0.0 0.0 0.00 0.00 0.00 80 1013.0
20260903172028 21 0.0 0.0 0.00 0.00 0.00 81 1012.9
20260903171032 21 0.0 0.0 0.00 0.00 0.00 81 1012.9
20260903170017 20 0.0 0.0 0.00 0.00 0.00 82 1012.9
20260903165020 20 0.0 0.0 0.00 0.00 0.00 83 1013.1
20260903164023 20 0.0 0.0 0.00 0.00 0.00 82 1013.1
20260903163027 20 0.0 0.0 0.00 0.00 0.00 83 1013.1
20260903162030 20 0.0 0.0 0.00 0.00 0.00 83 1013.1
20260903161015 20 0.0 0.0 0.00 0.00 0.00 83 1013.1
20260903160018 20 0.0 0.0 0.00 0.00 0.00 82 1013.3
20260903155022 20 0.0 0.0 0.00 0.00 0.00 82 1013.6
20260903154025 20 0.0 0.0 0.00 0.00 0.00 85 1013.7
20260903153022 20 0.0 0.0 0.00 0.00 0.00 86 1013.7